TimePDT,TemperatureF,Dew PointF,Humidity,Sea Level PressureIn,VisibilityMPH,Wind Direction,Wind SpeedMPH,Gust SpeedMPH,PrecipitationIn,Events,Conditions,WindDirDegrees,DateUTC
12:53 AM,55.9,53.1,90,30.03,10.0,West,11.5,-,N/A,,Clear,280,2013-08-11 07:53:00
1:53 AM,55.9,53.1,90,30.04,10.0,WNW,9.2,-,N/A,,Clear,290,2013-08-11 08:53:00
2:53 AM,55.9,53.1,90,30.05,10.0,NW,3.5,-,N/A,,Clear,310,2013-08-11 09:53:00
3:53 AM,55.9,52.0,87,30.04,10.0,West,11.5,-,N/A,,Scattered Clouds,280,2013-08-11 10:53:00
4:04 AM,55.9,52.0,87,30.03,10.0,WNW,12.7,-,N/A,,Scattered Clouds,290,2013-08-11 11:04:00
4:53 AM,55.9,52.0,87,30.03,10.0,WNW,9.2,-,N/A,,Mostly Cloudy,300,2013-08-11 11:53:00
5:14 AM,55.0,53.1,93,30.04,10.0,WNW,9.2,-,0.00,,Mostly Cloudy,300,2013-08-11 12:14:00
5:30 AM,55.0,53.1,93,30.04,10.0,North,-9999.0,-,0.00,,Mostly Cloudy,0,2013-08-11 12:30:00
5:53 AM,55.0,53.1,93,30.06,10.0,WNW,4.6,-,0.00,,Overcast,290,2013-08-11 12:53:00
6:12 AM,55.9,52.0,87,30.04,10.0,WNW,10.4,-,N/A,,Mostly Cloudy,290,2013-08-11 13:12:00
6:19 AM,55.9,52.0,87,30.04,10.0,WNW,11.5,-,N/A,,Mostly Cloudy,290,2013-08-11 13:19:00
6:40 AM,55.0,53.1,93,30.05,10.0,WNW,6.9,-,N/A,,Mostly Cloudy,290,2013-08-11 13:40:00
6:53 AM,55.9,53.1,90,30.06,10.0,WNW,8.1,-,N/A,,Overcast,290,2013-08-11 13:53:00
7:53 AM,55.9,53.1,90,30.06,10.0,NW,8.1,-,N/A,,Overcast,310,2013-08-11 14:53:00
8:03 AM,55.9,53.1,90,30.06,10.0,NW,5.8,-,N/A,,Overcast,310,2013-08-11 15:03:00
8:23 AM,57.0,53.1,87,30.07,10.0,WSW,3.5,-,N/A,,Overcast,240,2013-08-11 15:23:00
8:44 AM,57.0,52.0,83,30.08,10.0,SW,4.6,-,N/A,,Overcast,230,2013-08-11 15:44:00
8:53 AM,57.0,53.1,87,30.08,10.0,WSW,5.8,-,N/A,,Overcast,250,2013-08-11 15:53:00
9:33 AM,59.0,53.1,81,30.07,10.0,WNW,5.8,-,N/A,,Overcast,290,2013-08-11 16:33:00
9:53 AM,59.0,53.1,81,30.07,10.0,West,4.6,-,N/A,,Overcast,280,2013-08-11 16:53:00
10:53 AM,61.0,53.1,75,30.08,10.0,Variable,4.6,-,N/A,,Overcast,0,2013-08-11 17:53:00
11:53 AM,61.0,53.1,75,30.07,10.0,WNW,6.9,-,N/A,,Overcast,300,2013-08-11 18:53:00
12:42 PM,63.0,54.0,72,30.07,10.0,North,6.9,-,N/A,,Partly Cloudy,360,2013-08-11 19:42:00
12:53 PM,63.0,54.0,72,30.07,10.0,NNE,6.9,-,N/A,,Partly Cloudy,20,2013-08-11 19:53:00
1:53 PM,64.9,54.0,68,30.08,10.0,NNW,8.1,-,N/A,,Clear,330,2013-08-11 20:53:00
2:53 PM,64.0,53.1,67,30.07,10.0,NW,11.5,-,N/A,,Clear,310,2013-08-11 21:53:00
3:53 PM,62.1,52.0,70,30.05,10.0,NW,10.4,-,N/A,,Scattered Clouds,310,2013-08-11 22:53:00
4:53 PM,62.1,52.0,70,30.04,10.0,NW,11.5,17.3,N/A,,Scattered Clouds,320,2013-08-11 23:53:00
5:53 PM,61.0,53.1,75,30.04,10.0,WNW,11.5,-,N/A,,Scattered Clouds,300,2013-08-12 00:53:00
6:53 PM,60.1,53.1,78,30.04,10.0,WNW,9.2,-,N/A,,Overcast,300,2013-08-12 01:53:00
7:53 PM,57.9,53.1,84,30.04,10.0,WNW,4.6,-,N/A,,Mostly Cloudy,290,2013-08-12 02:53:00
8:53 PM,57.0,53.1,87,30.04,10.0,WNW,6.9,-,0.00,,Mostly Cloudy,290,2013-08-12 03:53:00
9:03 PM,57.0,53.1,87,30.04,10.0,West,9.2,-,N/A,,Overcast,280,2013-08-12 04:03:00
9:41 PM,57.0,53.1,87,30.04,10.0,WNW,8.1,-,N/A,,Overcast,290,2013-08-12 04:41:00
9:53 PM,57.0,53.1,87,30.04,10.0,WNW,8.1,-,N/A,,Mostly Cloudy,290,2013-08-12 04:53:00
10:53 PM,55.9,53.1,90,30.04,10.0,WNW,6.9,-,N/A,,Scattered Clouds,290,2013-08-12 05:53:00
11:53 PM,55.9,53.1,90,30.04,10.0,Calm,Calm,-,N/A,,Overcast,0,2013-08-12 06:53:00